Pian Rosa, Italy

1:28 PM CEST on April 25, 2017 (GMT +0200)
Pian Rosa

Weather History for LIMH - March, 2013

Change the Weather History Date:

Thursday, March 21, 2013

  Actual Average Record
Temperature  
Mean Temperature 8 °F -  
Max Temperature 16 °F 21 °F 42 °F (2012)
Min Temperature 1 °F 10 °F -4 °F (2007)
Degree Days  
Heating Degree Days 56    
Moisture  
Dew Point -1 °F    
Average Humidity 65    
Maximum Humidity 92    
Minimum Humidity 15    
Precipitation  
Precipitation 0.00 in - - ()
Sea Level Pressure  
Sea Level Pressure 29.76 in    
Wind  
Wind Speed 21 mph ()    
Max Wind Speed 36 mph    
Max Gust Speed -    
Visibility 3.3 miles    
Events Fog , Snow    
Averages and records for this station are not official NWS values.
T = Trace of Precipitation, MM = Missing Value Source: Averaged Metar Reports

Daily Weather History Graph

Daily Weather History Graph

Search for Another Location

Airport or City:

Trip Planner

Search our weather history database for the weather conditions in past years. The results will help you decide how hot, cold, wet, or windy it might be!

Date:

Astronomy

Mar. 21, 2013 Rise Set
Actual Time 6:30 AM CET 6:43 PM CET
Civil Twilight 6:00 AM CET 7:12 PM CET
Nautical Twilight 5:25 AM CET 7:48 PM CET
Astronomical Twilight 4:49 AM CET 8:24 PM CET
Moon 12:42 PM CET (3/21) 2:57 AM CET (3/21)
Length of Visible Light 13h 12m
Length of Day
12h 12m
Waxing Gibbous, 66% of the Moon is Illuminated
Mar 21
Waxing Gibbous
Mar 27
Full
Apr 3
Last Quarter
Apr 10
New
Apr 18
First Quarter

Hourly Weather History & Observations

Time (CET) Temp. Windchill Dew Point Humidity Pressure Visibility Wind Dir Wind Speed Gust Speed Precip Events Conditions
1:00 AM 2 °F - -0 °F 85%  in 0 mi North 20.7 mph - - Snow Light Snow
1:55 AM 3.2 °F -23.2 °F -0.4 °F 85% 29.62 in 0.1 mi NNE 35.7 mph - N/A Fog , Snow Light Snow
2:55 AM 1.4 °F -20.5 °F -0.4 °F 92% 29.62 in 0.1 mi NE 20.7 mph - N/A Fog , Snow Light Snow
3:55 AM 1.4 °F -24.3 °F -0.4 °F 92% 29.62 in 0.1 mi ENE 31.1 mph - N/A Fog , Snow Light Snow
4:00 AM 2 °F - -0 °F 84%  in 0 mi ENE 31.1 mph - - Snow Light Snow
4:55 AM 1.4 °F -23.2 °F -0.4 °F 92% 29.68 in 0.1 mi NNE 27.6 mph - N/A Fog , Snow Light Snow
5:55 AM 1.4 °F -22.3 °F -0.4 °F 92% 29.65 in 0.5 mi NE 25.3 mph - N/A Fog Light Freezing Fog
6:55 AM 1.4 °F -20.5 °F -0.4 °F 92% 29.71 in 6.2 mi North 20.7 mph - N/A   Partly Cloudy
7:00 AM 1 °F - -1 °F 85%  in 19 mi North 20.7 mph - - Fog Light Fog
7:55 AM 5.0 °F -17.1 °F 3.2 °F 92% 29.71 in - North 24.2 mph - N/A   Clear
9:55 AM 6.8 °F -13.8 °F -7.6 °F 52% 29.74 in - NNE 21.9 mph - N/A   Clear
10:00 AM 7 °F - -7 °F 36%  in 47 mi NNE 21.9 mph - -  
10:55 AM 6.8 °F -9.3 °F -14.8 °F 37% 29.74 in - NE 12.7 mph - N/A   Clear
11:55 AM 8.6 °F -5.5 °F -16.6 °F 31% 29.77 in - NNE 10.4 mph - N/A   Clear
12:55 PM 10.4 °F -8.6 °F -14.8 °F 31% 29.80 in - North 20.7 mph - N/A   Clear
1:00 PM 11 °F - -15 °F 15%  in 37 mi North 20.7 mph - -   Clear
1:55 PM 14.0 °F -3.9 °F -11.2 °F 32% 29.80 in - NNW 20.7 mph - N/A   Clear
2:55 PM 14.0 °F -4.7 °F -14.8 °F 27% 29.80 in 6.2 mi NNW 23.0 mph - N/A   Scattered Clouds
3:55 PM 15.8 °F -5.5 °F -5.8 °F 38% 29.80 in 6.2 mi NNW 34.5 mph - N/A   Scattered Clouds
4:00 PM 16 °F - -5 °F 23%  in 19 mi NNW 34.5 mph - -   Mostly Cloudy
4:55 PM 15.8 °F -1.1 °F -0.4 °F 49% 29.80 in 6.2 mi NNW 19.6 mph - N/A   Mostly Cloudy
5:55 PM 15.8 °F -2.3 °F 3.2 °F 58% 29.83 in 6.2 mi NNW 23.0 mph - N/A   Scattered Clouds
6:55 PM 14.0 °F -3.4 °F 5.0 °F 67% 29.86 in 0.5 mi NW 19.6 mph - N/A Fog Light Freezing Fog
7:00 PM 14 °F - 6 °F 58%  in 0 mi NW 19.6 mph - - Fog Heavy Fog
7:55 PM 14.0 °F -2.0 °F 8.6 °F 79% 29.83 in 0.5 mi West 16.1 mph - N/A Fog Light Freezing Fog
8:55 PM 14.0 °F -0.8 °F 10.4 °F 86% 29.83 in 0.5 mi NNW 13.8 mph - N/A Fog Light Freezing Fog
9:55 PM 15.8 °F -1.5 °F 10.4 °F 79% 29.86 in 0.5 mi West 20.7 mph - N/A Fog Light Freezing Fog
10:00 PM 15 °F - 11 °F 75%  in 0 mi West 20.7 mph - - Fog Heavy Fog
10:55 PM 14.0 °F -3.0 °F 10.4 °F 86% 29.83 in 0.5 mi West 18.4 mph - N/A Fog Light Freezing Fog
11:55 PM 15.8 °F 0.3 °F 12.2 °F 86% 29.83 in 0.4 mi WNW 16.1 mph - N/A Fog Light Freezing Fog